QPF
0.00 0.01 0.00 0.00 0.00 0.00 0.00 0.01 0.01 0.01 0.01 0.02 0.02 0.02 0.02 0.02 0.03 0.03 0.01 0.02 0.03 0.03 0.03 0.01 0.01 0.02 0.03 0.02 0.02 0.01 0.01 0.01 0.01 0.00 0.01 0.01 0.01 0.01 0.01 0.01 0.01 0.01 0.01
0.01 0.00 0.00 0.00 0.00 0.01 0.01 0.01 0.01 0.02 0.02 0.02 0.02 0.02 0.02 0.03 0.04 0.04 0.02 0.02 0.05 0.04 0.04 0.03 0.03 0.03 0.03 0.02 0.03 0.02 0.02 0.02 0.02 0.02 0.01 0.02 0.01 0.01 0.02 0.02 0.01 0.01 0.01
0.00 0.00 0.01 0.01 0.01 0.01 0.01 0.01 0.02 0.02 0.03 0.03 0.03 0.02 0.02 0.04 0.04 0.03 0.02 0.01 0.02 0.04 0.04 0.05 0.05 0.04 0.05 0.05 0.03 0.04 0.03 0.03 0.02 0.02 0.02 0.01 0.01 0.01 0.01 0.01 0.01 0.01 0.01
0.02 0.02 0.01 0.01 0.01 0.02 0.02 0.02 0.01 0.02 0.03 0.03 0.03 0.02 0.03 0.03 0.03 0.03 0.02 0.02 0.01 0.01 0.03 0.05 0.06 0.05 0.04 0.04 0.04 0.04 0.03 0.03 0.02 0.02 0.01 0.01 0.01 0.01 0.01 0.01 0.01 0.01 0.01
0.07 0.03 0.03 0.03 0.03 0.04 0.05 0.05 0.03 0.03 0.03 0.04 0.04 0.04 0.04 0.03 0.03 0.03 0.03 0.02 0.01 0.01 0.01 0.03 0.06 0.05 0.04 0.04 0.04 0.05 0.05 0.04 0.04 0.04 0.03 0.01 0.01 0.01 0.01 0.01 0.01 0.01 0.01
0.09 0.07 0.06 0.05 0.06 0.07 0.06 0.04 0.04 0.03 0.03 0.05 0.07 0.07 0.05 0.03 0.03 0.02 0.02 0.02 0.02 0.02 0.01 0.01 0.01 0.02 0.03 0.04 0.04 0.06 0.06 0.05 0.04 0.04 0.04 0.03 0.02 0.02 0.01 0.02 0.01 0.01 0.01
0.08 0.07 0.08 0.07 0.07 0.07 0.05 0.04 0.04 0.03 0.02 0.04 0.06 0.07 0.04 0.03 0.02 0.01 0.01 0.02 0.02 0.02 0.01 0.01 0.00 0.00 0.01 0.02 0.03 0.04 0.05 0.05 0.05 0.05 0.05 0.04 0.04 0.03 0.03 0.02 0.02 0.01 0.01
0.10 0.08 0.07 0.06 0.05 0.05 0.04 0.03 0.03 0.03 0.03 0.05 0.06 0.08 0.05 0.02 0.01 0.00 0.01 0.01 0.03 0.03 0.02 0.02 0.01 0.01 0.01 0.01 0.01 0.03 0.05 0.05 0.07 0.07 0.05 0.04 0.04 0.03 0.02 0.02 0.03 0.02 0.01
0.14 0.12 0.08 0.07 0.07 0.06 0.04 0.04 0.04 0.05 0.05 0.05 0.04 0.04 0.02 0.01 0.01 0.00 0.00 0.01 0.02 0.03 0.03 0.02 0.01 0.01 0.02 0.01 0.01 0.01 0.03 0.04 0.05 0.06 0.07 0.06 0.05 0.02 0.02 0.02 0.03 0.02 0.01
0.13 0.11 0.10 0.10 0.09 0.07 0.06 0.05 0.05 0.05 0.05 0.05 0.04 0.03 0.02 0.01 0.01 0.00 0.00 0.01 0.01 0.01 0.02 0.02 0.02 0.03 0.04 0.02 0.02 0.02 0.02 0.02 0.05 0.06 0.07 0.07 0.06 0.04 0.03 0.03 0.03 0.03 0.02
0.11 0.12 0.13 0.13 0.10 0.07 0.06 0.06 0.06 0.05 0.05 0.05 0.05 0.04 0.05 0.04 0.02 0.01 0.00 0.01 0.01 0.01 0.02 0.02 0.02 0.04 0.04 0.04 0.04 0.05 0.03 0.02 0.03 0.03 0.05 0.05 0.05 0.05 0.04 0.04 0.04 0.04 0.04
0.10 0.11 0.14 0.13 0.10 0.07 0.07 0.07 0.08 0.06 0.05 0.04 0.04 0.04 0.04 0.04 0.03 0.02 0.01 0.01 0.00 0.01 0.02 0.02 0.03 0.03 0.04 0.05 0.05 0.05 0.04 0.04 0.03 0.03 0.03 0.04 0.04 0.05 0.06 0.05 0.03 0.03 0.04
0.09 0.12 0.15 0.13 0.11 0.08 0.08 0.08 0.07 0.05 0.05 0.04 0.03 0.04 0.04 0.03 0.03 0.03 0.02 0.01 0.01 0.01 0.01 0.01 0.01 0.02 0.02 0.03 0.04 0.05 0.06 0.07 0.06 0.05 0.04 0.03 0.03 0.04 0.05 0.04 0.03 0.03 0.03
0.09 0.11 0.11 0.09 0.08 0.08 0.09 0.08 0.06 0.04 0.05 0.04 0.04 0.04 0.04 0.04 0.05 0.04 0.04 0.04 0.03 0.02 0.01 0.01 0.02 0.02 0.03 0.03 0.03 0.05 0.06 0.06 0.05 0.05 0.04 0.04 0.03 0.02 0.02 0.02 0.02 0.02 0.02
0.10 0.10 0.09 0.09 0.09 0.09 0.09 0.08 0.08 0.07 0.06 0.04 0.04 0.04 0.03 0.05 0.06 0.06 0.06 0.06 0.04 0.03 0.02 0.01 0.01 0.02 0.03 0.03 0.04 0.05 0.04 0.04 0.04 0.03 0.03 0.03 0.03 0.02 0.02 0.02 0.01 0.01 0.01
0.10 0.09 0.08 0.08 0.10 0.12 0.11 0.10 0.09 0.10 0.10 0.08 0.07 0.06 0.05 0.05 0.06 0.07 0.08 0.08 0.08 0.07 0.05 0.04 0.02 0.02 0.02 0.04 0.06 0.06 0.05 0.04 0.03 0.03 0.03 0.03 0.03 0.03 0.03 0.02 0.02 0.02 0.02
0.09 0.08 0.07 0.08 0.09 0.11 0.11 0.11 0.11 0.12 0.13 0.12 0.12 0.10 0.09 0.09 0.08 0.09 0.09 0.08 0.07 0.07 0.06 0.04 0.03 0.02 0.02 0.03 0.05 0.06 0.05 0.04 0.04 0.03 0.02 0.02 0.02 0.02 0.03 0.03 0.03 0.04 0.04
0.10 0.11 0.11 0.10 0.11 0.11 0.11 0.11 0.12 0.11 0.11 0.11 0.12 0.12 0.11 0.10 0.07 0.07 0.07 0.06 0.05 0.05 0.05 0.04 0.04 0.03 0.03 0.03 0.04 0.05 0.04 0.03 0.03 0.03 0.02 0.01 0.01 0.02 0.02 0.02 0.02 0.02 0.02
0.10 0.10 0.10 0.11 0.13 0.14 0.14 0.12 0.13 0.15 0.15 0.15 0.14 0.12 0.09 0.09 0.07 0.07 0.09 0.08 0.07 0.06 0.05 0.04 0.03 0.04 0.04 0.04 0.04 0.04 0.04 0.04 0.03 0.02 0.02 0.02 0.02 0.03 0.03 0.03 0.02 0.02 0.02
0.07 0.08 0.08 0.09 0.12 0.13 0.14 0.15 0.15 0.14 0.14 0.13 0.11 0.11 0.10 0.09 0.09 0.09 0.08 0.07 0.08 0.07 0.06 0.06 0.06 0.05 0.05 0.05 0.04 0.04 0.04 0.04 0.04 0.04 0.04 0.04 0.04 0.04 0.04 0.03 0.03 0.03 0.03
0.05 0.05 0.06 0.06 0.08 0.09 0.11 0.13 0.12 0.11 0.11 0.11 0.11 0.12 0.12 0.12 0.12 0.11 0.11 0.10 0.10 0.09 0.07 0.06 0.06 0.05 0.04 0.04 0.04 0.04 0.05 0.06 0.06 0.06 0.06 0.05 0.04 0.03 0.03 0.03 0.04 0.04 0.03
0.05 0.05 0.04 0.04 0.04 0.06 0.10 0.13 0.13 0.10 0.09 0.09 0.10 0.10 0.10 0.10 0.10 0.11 0.11 0.11 0.10 0.10 0.09 0.08 0.07 0.06 0.05 0.05 0.05 0.05 0.05 0.06 0.06 0.06 0.06 0.05 0.04 0.04 0.03 0.03 0.03 0.04 0.04
0.11 0.10 0.09 0.07 0.05 0.07 0.09 0.09 0.08 0.06 0.08 0.09 0.09 0.10 0.10 0.10 0.10 0.11 0.14 0.15 0.14 0.14 0.12 0.11 0.11 0.10 0.09 0.08 0.07 0.06 0.06 0.05 0.05 0.05 0.05 0.05 0.06 0.06 0.06 0.06 0.06 0.07 0.07
0.14 0.14 0.14 0.13 0.08 0.07 0.07 0.06 0.06 0.06 0.06 0.07 0.09 0.10 0.10 0.10 0.11 0.12 0.14 0.15 0.15 0.14 0.14 0.13 0.12 0.12 0.12 0.10 0.08 0.07 0.07 0.06 0.06 0.05 0.05 0.05 0.05 0.06 0.07 0.07 0.07 0.06 0.06
0.12 0.08 0.07 0.08 0.07 0.06 0.07 0.07 0.07 0.06 0.07 0.08 0.09 0.10 0.12 0.11 0.12 0.11 0.11 0.14 0.15 0.15 0.14 0.13 0.13 0.13 0.12 0.09 0.07 0.06 0.05 0.04 0.04 0.04 0.04 0.04 0.05 0.05 0.05 0.06 0.06 0.05 0.04
0.06 0.06 0.07 0.07 0.07 0.06 0.07 0.06 0.05 0.04 0.07 0.09 0.09 0.09 0.10 0.11 0.14 0.14 0.13 0.13 0.14 0.13 0.11 0.10 0.09 0.08 0.08 0.07 0.06 0.04 0.03 0.04 0.04 0.04 0.04 0.04 0.05 0.05 0.06 0.06 0.04 0.04 0.04
MSLP
1018.58 1018.79 1018.93 1019.04 1019.13 1019.21 1019.30 1019.40 1019.52 1019.65 1019.77 1019.88 1019.98 1020.07 1020.17 1020.27 1020.38 1020.52 1020.67 1020.83 1020.99 1021.13 1021.26 1021.37 1021.47 1021.57 1021.68 1021.80 1021.94 1022.10 1022.26 1022.43 1022.59 1022.74 1022.88 1023.01 1023.14 1023.26 1023.37 1023.48 1023.57 1023.65 1023.71
1018.62 1018.83 1018.99 1019.13 1019.24 1019.35 1019.47 1019.60 1019.75 1019.89 1020.03 1020.16 1020.26 1020.35 1020.43 1020.50 1020.57 1020.65 1020.74 1020.85 1020.97 1021.10 1021.23 1021.36 1021.50 1021.63 1021.77 1021.91 1022.05 1022.19 1022.32 1022.45 1022.59 1022.72 1022.85 1022.99 1023.14 1023.28 1023.42 1023.54 1023.64 1023.71 1023.77
1018.52 1018.73 1018.93 1019.11 1019.27 1019.43 1019.60 1019.77 1019.95 1020.13 1020.30 1020.45 1020.57 1020.66 1020.72 1020.75 1020.77 1020.79 1020.81 1020.85 1020.92 1021.01 1021.13 1021.28 1021.44 1021.61 1021.78 1021.94 1022.08 1022.20 1022.31 1022.41 1022.51 1022.62 1022.75 1022.88 1023.04 1023.20 1023.35 1023.49 1023.60 1023.68 1023.74
1018.30 1018.53 1018.76 1018.99 1019.22 1019.44 1019.66 1019.88 1020.10 1020.32 1020.52 1020.70 1020.85 1020.94 1021.00 1021.00 1020.98 1020.93 1020.88 1020.85 1020.85 1020.90 1021.00 1021.14 1021.32 1021.52 1021.71 1021.89 1022.04 1022.15 1022.24 1022.32 1022.39 1022.47 1022.57 1022.71 1022.86 1023.03 1023.19 1023.34 1023.46 1023.56 1023.62
1018.00 1018.25 1018.52 1018.81 1019.09 1019.37 1019.65 1019.91 1020.17 1020.42 1020.66 1020.86 1021.03 1021.15 1021.21 1021.21 1021.15 1021.05 1020.95 1020.85 1020.79 1020.79 1020.85 1020.98 1021.15 1021.36 1021.58 1021.77 1021.93 1022.04 1022.12 1022.18 1022.22 1022.28 1022.37 1022.49 1022.63 1022.80 1022.97 1023.12 1023.25 1023.35 1023.43
1017.67 1017.94 1018.25 1018.58 1018.92 1019.24 1019.56 1019.85 1020.13 1020.40 1020.66 1020.89 1021.08 1021.23 1021.31 1021.32 1021.26 1021.14 1021.00 1020.85 1020.74 1020.68 1020.70 1020.80 1020.96 1021.16 1021.38 1021.58 1021.74 1021.86 1021.94 1021.98 1022.02 1022.07 1022.14 1022.24 1022.38 1022.54 1022.70 1022.85 1022.98 1023.08 1023.16
1017.36 1017.64 1017.98 1018.34 1018.71 1019.07 1019.40 1019.70 1019.98 1020.25 1020.51 1020.76 1020.98 1021.16 1021.28 1021.32 1021.28 1021.17 1021.02 1020.84 1020.69 1020.58 1020.55 1020.60 1020.72 1020.90 1021.10 1021.30 1021.46 1021.59 1021.67 1021.72 1021.76 1021.81 1021.87 1021.97 1022.10 1022.25 1022.40 1022.54 1022.66 1022.76 1022.83
1017.10 1017.38 1017.73 1018.11 1018.49 1018.85 1019.18 1019.47 1019.73 1019.98 1020.23 1020.49 1020.73 1020.94 1021.11 1021.20 1021.21 1021.14 1020.99 1020.81 1020.63 1020.48 1020.39 1020.38 1020.45 1020.58 1020.75 1020.92 1021.08 1021.20 1021.29 1021.36 1021.41 1021.47 1021.54 1021.65 1021.77 1021.91 1022.05 1022.18 1022.29 1022.38 1022.44
1016.88 1017.15 1017.50 1017.88 1018.26 1018.61 1018.91 1019.17 1019.40 1019.62 1019.85 1020.10 1020.35 1020.61 1020.82 1020.98 1021.05 1021.02 1020.91 1020.74 1020.54 1020.35 1020.21 1020.13 1020.13 1020.19 1020.30 1020.43 1020.56 1020.68 1020.78 1020.86 1020.93 1021.01 1021.11 1021.23 1021.36 1021.50 1021.63 1021.75 1021.85 1021.92 1021.98
1016.67 1016.94 1017.27 1017.64 1018.01 1018.33 1018.60 1018.82 1019.01 1019.19 1019.40 1019.63 1019.90 1020.18 1020.45 1020.67 1020.80 1020.84 1020.77 1020.62 1020.41 1020.19 1019.99 1019.84 1019.75 1019.73 1019.77 1019.84 1019.94 1020.03 1020.13 1020.22 1020.32 1020.42 1020.54 1020.68 1020.82 1020.97 1021.10 1021.21 1021.30 1021.37 1021.42
1016.44 1016.69 1017.01 1017.36 1017.70 1018.00 1018.24 1018.43 1018.58 1018.73 1018.91 1019.14 1019.41 1019.72 1020.02 1020.29 1020.49 1020.58 1020.56 1020.44 1020.23 1019.99 1019.74 1019.52 1019.35 1019.25 1019.20 1019.20 1019.24 1019.31 1019.39 1019.48 1019.59 1019.72 1019.86 1020.01 1020.16 1020.31 1020.45 1020.56 1020.65 1020.72 1020.77
1016.15 1016.37 1016.66 1016.99 1017.31 1017.59 1017.82 1017.99 1018.12 1018.25 1018.41 1018.63 1018.90 1019.22 1019.56 1019.87 1020.11 1020.26 1020.28 1020.19 1020.00 1019.75 1019.47 1019.19 1018.96 1018.77 1018.64 1018.57 1018.55 1018.58 1018.63 1018.71 1018.82 1018.94 1019.09 1019.25 1019.41 1019.56 1019.70 1019.81 1019.90 1019.98 1020.05
1015.76 1015.95 1016.22 1016.53 1016.83 1017.11 1017.32 1017.49 1017.62 1017.74 1017.90 1018.11 1018.38 1018.70 1019.05 1019.39 1019.67 1019.85 1019.92 1019.87 1019.71 1019.47 1019.18 1018.88 1018.60 1018.36 1018.17 1018.04 1017.96 1017.93 1017.95 1018.00 1018.09 1018.20 1018.34 1018.48 1018.63 1018.78 1018.91 1019.02 1019.12 1019.21 1019.29
1015.30 1015.46 1015.69 1015.97 1016.27 1016.53 1016.75 1016.93 1017.07 1017.20 1017.35 1017.56 1017.82 1018.14 1018.49 1018.83 1019.13 1019.35 1019.46 1019.45 1019.34 1019.13 1018.87 1018.58 1018.29 1018.03 1017.82 1017.65 1017.54 1017.47 1017.45 1017.46 1017.52 1017.60 1017.70 1017.82 1017.94 1018.06 1018.18 1018.28 1018.38 1018.47 1018.58
1014.79 1014.91 1015.11 1015.36 1015.64 1015.90 1016.12 1016.31 1016.46 1016.60 1016.76 1016.96 1017.21 1017.50 1017.83 1018.16 1018.47 1018.70 1018.85 1018.90 1018.84 1018.71 1018.51 1018.28 1018.04 1017.81 1017.61 1017.44 1017.32 1017.24 1017.19 1017.17 1017.18 1017.22 1017.28 1017.35 1017.43 1017.51 1017.60 1017.68 1017.77 1017.87 1017.99
1014.31 1014.39 1014.54 1014.75 1014.99 1015.24 1015.47 1015.66 1015.82 1015.96 1016.11 1016.29 1016.50 1016.76 1017.05 1017.35 1017.64 1017.88 1018.06 1018.17 1018.20 1018.15 1018.06 1017.93 1017.79 1017.64 1017.51 1017.40 1017.31 1017.24 1017.19 1017.16 1017.14 1017.14 1017.14 1017.16 1017.19 1017.22 1017.27 1017.32 1017.39 1017.48 1017.60
1013.93 1013.95 1014.05 1014.21 1014.41 1014.63 1014.83 1015.01 1015.16 1015.29 1015.40 1015.54 1015.70 1015.89 1016.12 1016.37 1016.63 1016.87 1017.08 1017.24 1017.36 1017.44 1017.48 1017.49 1017.49 1017.48 1017.47 1017.46 1017.45 1017.44 1017.42 1017.40 1017.38 1017.34 1017.31 1017.28 1017.26 1017.24 1017.24 1017.25 1017.30 1017.37 1017.48
1013.71 1013.67 1013.70 1013.80 1013.95 1014.11 1014.28 1014.42 1014.53 1014.62 1014.68 1014.75 1014.83 1014.94 1015.09 1015.26 1015.47 1015.69 1015.92 1016.14 1016.35 1016.55 1016.75 1016.93 1017.10 1017.26 1017.42 1017.55 1017.66 1017.74 1017.80 1017.82 1017.81 1017.78 1017.73 1017.67 1017.60 1017.54 1017.50 1017.48 1017.49 1017.54 1017.62
1013.67 1013.57 1013.54 1013.57 1013.65 1013.76 1013.86 1013.94 1013.99 1014.01 1014.00 1013.97 1013.96 1013.96 1014.01 1014.10 1014.24 1014.43 1014.66 1014.93 1015.23 1015.56 1015.90 1016.25 1016.61 1016.96 1017.29 1017.59 1017.85 1018.06 1018.21 1018.30 1018.35 1018.34 1018.30 1018.23 1018.15 1018.07 1018.00 1017.95 1017.93 1017.95 1018.01
1013.82 1013.68 1013.58 1013.55 1013.56 1013.59 1013.62 1013.63 1013.60 1013.52 1013.42 1013.29 1013.17 1013.06 1013.00 1013.00 1013.07 1013.21 1013.44 1013.74 1014.11 1014.54 1015.02 1015.53 1016.06 1016.59 1017.09 1017.56 1017.97 1018.31 1018.57 1018.76 1018.87 1018.92 1018.91 1018.87 1018.80 1018.71 1018.63 1018.57 1018.53 1018.53 1018.56
1014.13 1013.95 1013.82 1013.73 1013.67 1013.63 1013.59 1013.51 1013.40 1013.23 1013.03 1012.80 1012.57 1012.36 1012.19 1012.10 1012.10 1012.20 1012.41 1012.73 1013.14 1013.65 1014.23 1014.87 1015.54 1016.21 1016.86 1017.46 1018.00 1018.46 1018.83 1019.11 1019.30 1019.42 1019.47 1019.46 1019.43 1019.37 1019.30 1019.24 1019.20 1019.17 1019.18
1014.57 1014.38 1014.22 1014.09 1013.99 1013.89 1013.77 1013.63 1013.43 1013.19 1012.90 1012.58 1012.26 1011.96 1011.72 1011.55 1011.49 1011.55 1011.74 1012.05 1012.50 1013.05 1013.70 1014.41 1015.17 1015.93 1016.67 1017.37 1017.99 1018.54 1018.99 1019.34 1019.60 1019.78 1019.89 1019.94 1019.95 1019.93 1019.90 1019.86 1019.83 1019.80 1019.79
1015.10 1014.92 1014.76 1014.61 1014.48 1014.34 1014.18 1013.98 1013.73 1013.42 1013.07 1012.69 1012.31 1011.96 1011.66 1011.45 1011.35 1011.38 1011.55 1011.86 1012.31 1012.88 1013.54 1014.28 1015.07 1015.86 1016.63 1017.36 1018.01 1018.58 1019.07 1019.46 1019.76 1019.99 1020.15 1020.25 1020.32 1020.35 1020.37 1020.36 1020.35 1020.34 1020.32
1015.69 1015.55 1015.40 1015.27 1015.13 1014.97 1014.78 1014.55 1014.27 1013.93 1013.55 1013.15 1012.76 1012.38 1012.07 1011.85 1011.74 1011.76 1011.92 1012.22 1012.65 1013.20 1013.85 1014.56 1015.32 1016.08 1016.82 1017.51 1018.13 1018.67 1019.14 1019.52 1019.83 1020.07 1020.26 1020.41 1020.53 1020.61 1020.68 1020.72 1020.74 1020.74 1020.73
1016.34 1016.25 1016.14 1016.03 1015.90 1015.74 1015.55 1015.31 1015.02 1014.69 1014.32 1013.93 1013.55 1013.21 1012.92 1012.71 1012.61 1012.64 1012.79 1013.08 1013.49 1014.00 1014.60 1015.25 1015.93 1016.61 1017.26 1017.86 1018.39 1018.86 1019.25 1019.58 1019.86 1020.09 1020.28 1020.46 1020.61 1020.74 1020.85 1020.94 1021.00 1021.03 1021.02
1017.05 1017.01 1016.95 1016.86 1016.75 1016.61 1016.43 1016.20 1015.93 1015.62 1015.29 1014.95 1014.62 1014.32 1014.08 1013.92 1013.85 1013.90 1014.06 1014.33 1014.70 1015.16 1015.69 1016.26 1016.83 1017.40 1017.92 1018.40 1018.81 1019.16 1019.46 1019.70 1019.92 1020.11 1020.29 1020.46 1020.63 1020.80 1020.95 1021.08 1021.17 1021.22 1021.23
Thickness
5746 5745 5744 5743 5742 5741 5740 5739 5738 5738 5737 5736 5736 5735 5734 5734 5732 5731 5730 5729 5728 5726 5725 5723 5721 5719 5717 5716 5715 5713 5712 5711 5710 5709 5707 5706 5705 5704 5703 5702 5701 5700 5699
5745 5744 5743 5742 5741 5740 5739 5738 5738 5737 5736 5736 5736 5735 5735 5734 5733 5732 5731 5730 5729 5727 5725 5724 5722 5720 5718 5716 5715 5713 5712 5711 5710 5709 5707 5706 5705 5704 5703 5702 5700 5699 5699
5744 5743 5742 5741 5741 5740 5739 5737 5737 5736 5736 5735 5735 5735 5735 5734 5733 5732 5731 5730 5729 5728 5726 5725 5723 5721 5719 5718 5716 5714 5713 5712 5711 5709 5708 5706 5705 5704 5703 5702 5701 5700 5699
5744 5743 5742 5741 5741 5739 5738 5737 5736 5735 5735 5735 5735 5735 5735 5735 5734 5733 5732 5731 5730 5729 5727 5726 5724 5723 5721 5719 5718 5716 5714 5713 5711 5710 5708 5707 5705 5704 5703 5702 5701 5701 5700
5743 5742 5742 5741 5740 5739 5738 5737 5736 5735 5734 5734 5734 5734 5734 5735 5734 5734 5733 5732 5731 5730 5729 5727 5726 5724 5723 5721 5720 5718 5716 5715 5713 5711 5710 5708 5707 5705 5704 5703 5702 5701 5700
5743 5742 5741 5741 5740 5738 5737 5736 5735 5735 5734 5734 5734 5733 5733 5734 5734 5734 5734 5733 5732 5731 5730 5729 5728 5726 5725 5723 5722 5720 5718 5717 5715 5713 5712 5710 5709 5707 5706 5705 5703 5702 5701
5743 5742 5742 5740 5739 5738 5738 5737 5735 5733 5732 5732 5730 5728 5731 5733 5734 5735 5735 5734 5734 5733 5732 5731 5729 5728 5727 5725 5724 5722 5721 5719 5718 5716 5714 5712 5711 5709 5708 5706 5705 5703 5702
5744 5743 5742 5741 5740 5738 5737 5736 5735 5732 5732 5732 5728 5724 5722 5726 5732 5736 5736 5735 5735 5734 5733 5733 5731 5730 5729 5727 5726 5725 5723 5722 5720 5718 5716 5715 5713 5711 5710 5708 5706 5705 5703
5744 5744 5743 5741 5740 5739 5737 5736 5735 5733 5730 5730 5731 5726 5720 5719 5725 5732 5734 5736 5735 5735 5734 5734 5733 5732 5730 5729 5728 5727 5725 5724 5722 5721 5719 5717 5715 5714 5712 5710 5708 5706 5705
5744 5743 5742 5740 5740 5739 5738 5737 5736 5734 5732 5729 5729 5729 5728 5727 5722 5723 5730 5733 5734 5734 5734 5734 5734 5733 5732 5731 5730 5729 5727 5726 5724 5722 5721 5719 5717 5716 5714 5712 5710 5708 5706
5745 5744 5742 5741 5740 5739 5738 5737 5736 5735 5734 5732 5730 5728 5726 5725 5725 5722 5721 5727 5730 5733 5734 5734 5734 5733 5732 5731 5730 5730 5729 5727 5726 5724 5722 5720 5719 5717 5715 5713 5711 5709 5707
5744 5743 5742 5741 5740 5739 5738 5737 5736 5735 5734 5733 5731 5730 5728 5725 5723 5722 5721 5722 5725 5730 5732 5733 5733 5733 5733 5732 5731 5730 5729 5728 5726 5724 5723 5721 5719 5717 5715 5713 5711 5709 5708
5743 5743 5742 5741 5740 5739 5738 5737 5736 5735 5734 5733 5731 5731 5730 5729 5728 5725 5722 5721 5721 5725 5728 5731 5732 5732 5731 5731 5730 5729 5728 5727 5725 5724 5722 5720 5718 5717 5715 5713 5711 5709 5707
5744 5744 5742 5742 5741 5740 5738 5737 5736 5735 5734 5732 5732 5731 5730 5729 5728 5726 5724 5720 5717 5719 5722 5725 5729 5729 5729 5729 5728 5727 5726 5725 5724 5722 5720 5718 5717 5715 5713 5711 5709 5707 5705
5744 5744 5743 5741 5740 5739 5738 5736 5734 5733 5732 5731 5731 5730 5729 5729 5727 5726 5725 5723 5717 5714 5715 5720 5723 5726 5726 5726 5725 5724 5723 5722 5721 5720 5718 5716 5714 5713 5710 5708 5706 5704 5702
5743 5742 5741 5739 5738 5737 5736 5734 5733 5732 5730 5729 5729 5728 5727 5726 5725 5724 5723 5721 5719 5716 5713 5716 5718 5721 5721 5722 5721 5720 5719 5718 5717 5715 5714 5712 5710 5709 5707 5704 5702 5700 5698
5741 5740 5739 5738 5736 5735 5733 5732 5730 5729 5727 5727 5726 5725 5724 5723 5722 5721 5719 5718 5716 5714 5711 5713 5714 5715 5715 5715 5715 5714 5713 5712 5711 5710 5709 5707 5705 5703 5702 5699 5697 5696 5694
5739 5738 5736 5735 5733 5732 5730 5729 5727 5726 5724 5723 5723 5722 5721 5720 5718 5717 5715 5714 5713 5711 5708 5706 5707 5707 5707 5708 5707 5707 5706 5705 5704 5703 5702 5700 5698 5696 5695 5693 5690 5689 5687
5735 5734 5733 5732 5730 5729 5727 5725 5724 5722 5721 5720 5719 5718 5717 5715 5713 5712 5711 5710 5708 5707 5704 5701 5700 5699 5699 5700 5699 5698 5697 5697 5696 5695 5694 5692 5690 5689 5687 5685 5683 5681 5679
5731 5730 5729 5728 5727 5725 5724 5722 5720 5718 5716 5716 5715 5714 5712 5711 5710 5708 5706 5705 5703 5700 5697 5695 5692 5691 5690 5690 5689 5687 5687 5687 5686 5686 5685 5683 5681 5680 5678 5676 5675 5673 5670
5726 5725 5724 5723 5722 5720 5719 5718 5716 5713 5711 5709 5708 5707 5707 5706 5705 5703 5701 5698 5696 5693 5690 5687 5685 5683 5681 5680 5679 5679 5677 5677 5676 5674 5674 5672 5670 5669 5667 5666 5664 5663 5660
5721 5719 5718 5717 5715 5714 5712 5712 5711 5708 5705 5703 5701 5700 5699 5698 5697 5696 5694 5692 5690 5687 5684 5681 5677 5675 5673 5672 5671 5670 5668 5667 5665 5664 5662 5660 5658 5657 5656 5654 5652 5651 5649
5714 5712 5711 5710 5707 5705 5704 5704 5703 5702 5698 5696 5694 5693 5692 5690 5689 5687 5685 5683 5680 5678 5676 5673 5669 5666 5664 5662 5661 5660 5658 5655 5652 5650 5649 5646 5646 5644 5642 5641 5640 5638 5636
5707 5705 5703 5702 5699 5697 5696 5696 5696 5694 5690 5687 5686 5684 5683 5681 5680 5678 5676 5672 5669 5666 5665 5663 5660 5657 5654 5652 5650 5649 5646 5643 5640 5637 5636 5633 5631 5629 5629 5627 5625 5623 5621
5700 5697 5694 5693 5691 5688 5688 5689 5688 5685 5681 5678 5676 5674 5673 5671 5669 5668 5666 5661 5657 5654 5652 5650 5647 5645 5642 5641 5639 5637 5634 5632 5628 5625 5622 5620 5618 5616 5614 5612 5610 5608 5606
5693 5690 5686 5684 5681 5679 5679 5680 5679 5676 5672 5668 5665 5663 5661 5660 5658 5657 5655 5651 5646 5641 5639 5637 5634 5632 5629 5627 5625 5623 5621 5619 5616 5612 5608 5607 5605 5603 5601 5598 5595 5593 5592